map of KDYA home
Great Circle Mapper logo
KDYA - Airport
Location
City:  Demopolis, Alabama, United States
Name:Demopolis Regional
ICAO:KDYA
FAA:DYA

Details
Type:Airport (Airfield)
Use:Public/Civil
Latitude:3227'50"N (32.463833)
Longitude:8757'15"W (-87.954055)
Datum:WGS 1984
Elevation:111 ft (34 m)
Variation:2.23W (WMM2015 magnetic declination)
-0.10 annual change
Runways:1
Longest:5002 × 100 ft (1525 × 30.5 m), paved

Time
Time Zone:UTC-6 (DST-5)
Local Time:

Weather
METAR:KDYA 282015Z AUTO 10008KT 10SM CLR 17/00 A3036 RMK AO2 T01721001

Related Locations
Nearby:
Farthest:MGV: 11107 mi / 17876 km
Margaret River, WA, AU

Find:

   beyond  
but within

Other Information
Maps:
NOTAMs:
Links:
Sources:

  
flag of United States
flag of Alabama
  

Sectional Chart

Flight Planning
at skyvector.com

Satellite Image

Google Maps Satellite View

 

Copyright © 2004-2015 Karl L. Swartz. All rights reserved.
The Great Circle Mapper name and logo are trademarks of the Great Circle Mapper.
All other trademarks mentioned herein belong to their respective owners.
Please see credits for attibutions and further copyright information.

  Follow gcmap on Facebook Follow gcmap on Twitter Follow gcmap on Google+

hCard Microformat

Geo Microformat